Manhattan, KS

3:31 PM CST on December 09, 2019 (GMT -0600)
Manhattan Regional

Weather History for KMHK - October, 2019

Change the Weather History Date:

Thursday, October 17, 2019

  Actual Average Record
Temperature  
Mean Temperature 57 °F 55 °F  
Max Temperature 78 °F 68 °F 90 °F (2016)
Min Temperature 36 °F 42 °F 27 °F (1999)
Degree Days  
Heating Degree Days 8 11  
Month to date heating degree days 158 142  
Since 1 July heating degree days 159 212  
Cooling Degree Days 0 0  
Month to date cooling degree days 13 21  
Year to date cooling degree days 1608 1358  
Growing Degree Days 7 (Base 50)    
Moisture  
Dew Point 41 °F    
Average Humidity 61    
Maximum Humidity 92    
Minimum Humidity 29    
Precipitation  
Precipitation 0.00 in 0.07 in 1.47 in (1998)
Month to date precipitation 2.60 1.33  
Year to date precipitation 40.58 29.04  
Sea Level Pressure  
Sea Level Pressure 29.90 in    
Wind  
Wind Speed 6 mph (South)    
Max Wind Speed 18 mph    
Max Gust Speed 25 mph    
Visibility 10 miles    
Events      
T = Trace of Precipitation, MM = Missing Value Source: NWS Daily Summary

Daily Weather History Graph

Daily Weather History Graph

Search for Another Location

Airport or City:

Astronomy

Oct. 17, 2019 Rise Set
Actual Time 7:38 AM CDT 6:45 PM CDT
Civil Twilight 7:11 AM CDT 7:12 PM CDT
Nautical Twilight 6:40 AM CDT 7:43 PM CDT
Astronomical Twilight 6:09 AM CDT 8:14 PM CDT
Moon 9:19 PM CDT (10/17) 11:09 AM CDT (10/17)
Length of Visible Light 12h 01m
Length of Day
11h 07m
Waning Gibbous, 86% of the Moon is Illuminated
Oct 17
Waning Gibbous
Oct 21
Last Quarter
Oct 27
New
Nov 4
First Quarter
Nov 12
Full

Hourly Weather History & Observations

Time (CDT) Temp. Dew Point Humidity Pressure Visibility Wind Dir Wind Speed Gust Speed Precip Events Conditions
12:52 AM 39.9 °F 37.0 °F 89% 30.04 in 10.0 mi Calm Calm - N/A   Clear
1:52 AM 39.0 °F 37.0 °F 93% 30.03 in 10.0 mi Calm Calm - N/A   Clear
2:52 AM 37.9 °F 35.1 °F 89% 30.02 in 10.0 mi Calm Calm - N/A   Clear
3:52 AM 39.0 °F 37.0 °F 93% 30.00 in 10.0 mi Calm Calm - N/A   Clear
4:52 AM 42.1 °F 37.9 °F 85% 29.99 in 10.0 mi Calm Calm - N/A   Clear
5:52 AM 41.0 °F 37.0 °F 86% 29.99 in 10.0 mi Calm Calm - N/A   Clear
6:52 AM 39.0 °F 37.0 °F 93% 29.99 in 10.0 mi Calm Calm - N/A   Clear
7:52 AM 39.0 °F 37.0 °F 93% 29.99 in 10.0 mi Calm Calm - N/A   Clear
8:52 AM 48.9 °F 41.0 °F 74% 29.98 in 10.0 mi Calm Calm - N/A   Clear
9:52 AM 55.0 °F 42.1 °F 62% 29.96 in 10.0 mi South 8.1 mph - N/A   Clear
10:52 AM 61.0 °F 41.0 °F 48% 29.94 in 10.0 mi SSW 15.0 mph - N/A   Clear
11:52 AM 66.0 °F 41.0 °F 40% 29.92 in 10.0 mi SSW 12.7 mph - N/A   Clear
12:52 PM 70.0 °F 41.0 °F 35% 29.89 in 10.0 mi SW 15.0 mph - N/A   Clear
1:52 PM 73.9 °F 42.1 °F 32% 29.86 in 10.0 mi South 12.7 mph - N/A   Clear
2:52 PM 75.9 °F 42.1 °F 30% 29.82 in 10.0 mi South 12.7 mph - N/A   Clear
3:52 PM 77.0 °F 42.1 °F 29% 29.80 in 10.0 mi South 12.7 mph - N/A   Clear
4:52 PM 75.9 °F 42.1 °F 30% 29.79 in 10.0 mi South 11.5 mph - N/A   Clear
5:52 PM 73.0 °F 43.0 °F 34% 29.79 in 10.0 mi South 9.2 mph - N/A   Clear
6:52 PM 66.9 °F 43.0 °F 42% 29.79 in 10.0 mi SE 4.6 mph - N/A   Clear
7:52 PM 61.0 °F 45.0 °F 56% 29.80 in 10.0 mi Calm Calm - N/A   Clear
8:52 PM 57.9 °F 45.0 °F 62% 29.79 in 10.0 mi Calm Calm - N/A   Clear
9:52 PM 61.0 °F 46.0 °F 58% 29.79 in 10.0 mi South 8.1 mph - N/A   Clear
10:52 PM 61.0 °F 46.0 °F 58% 29.78 in 10.0 mi South 8.1 mph - N/A   Clear
11:52 PM 60.1 °F 45.0 °F 57% 29.77 in 10.0 mi SSW 10.4 mph - N/A   Clear